FW6557 Weather Reports


time (UTC)temp
C
wind
direction
speed
KPH
gust
KPH
rain 1hr
cm
rain 24hr
cm
rain mn
cm
humidity
%
barometer
mb
20260508163029 12 36 6.4 17.7 0.00 1.91 0.03 84 1001.4
20260508161519 11 41 9.7 19.3 0.00 1.91 0.03 85 1001.4
20260508160022 11 360 6.4 20.9 0.00 1.91 0.03 84 1001.4
20260508154518 11 344 3.2 17.7 0.00 1.91 0.03 86 1001.3
20260508153016 11 29 8.0 17.7 0.00 1.91 0.03 84 1001.3
20260508151514 12 38 6.4 16.1 0.00 1.91 0.03 85 1001.3
20260508150034 11 24 4.8 14.5 0.00 1.91 0.03 86 1001.5
20260508144513 12 342 3.2 12.9 0.00 1.91 0.03 85 1001.6
20260508143015 12 5 3.2 9.7 0.00 1.91 0.03 85 1001.7
20260508141518 12 342 3.2 11.3 0.00 1.91 0.03 84 1001.7
20260508140021 12 360 3.2 9.7 0.00 1.91 0.03 82 1001.7
20260508134511 13 5 3.2 6.4 0.00 1.91 0.03 82 1002.1
20260508133011 13 40 3.2 12.9 0.00 1.91 0.03 82 1002.0
20260508131507 12 170 1.6 6.4 0.00 1.91 0.03 78 1001.7
20260508130003 12 117 0.0 3.2 0.00 1.91 0.03 86 1001.7
20260508124558 10 128 1.6 4.8 0.00 1.91 0.03 93 1001.5
20260508123056 9 223 1.6 6.4 0.00 1.91 0.03 97 1001.6
20260508121553 9 82 0.0 4.8 0.00 1.91 0.03 98 1002.0
20260508120050 8 83 1.6 6.4 0.00 1.91 0.03 99 1002.1
20260508114549 8 61 3.2 4.8 0.00 1.91 0.03 99 1002.2
20260508113049 7 98 1.6 4.8 0.00 1.91 0.03 99 1002.3
20260508111559 7 78 0.0 0.0 0.00 1.91 0.03 99 1002.3
20260508110048 6 33 0.0 0.0 0.00 1.91 0.03 99 1002.3
20260508104548 6 33 0.0 0.0 0.00 1.91 0.03 99 1002.7
20260508103051 6 33 0.0 0.0 0.00 1.91 0.03 99 1002.6
20260508101548 6 33 0.0 0.0 0.00 1.91 0.03 99 1002.5
20260508100045 6 33 0.0 0.0 0.00 1.91 0.03 99 1002.4
20260508094644 6 33 0.0 0.0 0.00 1.91 0.03 99 1002.1
20260508093042 6 33 0.0 0.0 0.00 1.91 0.03 99 1002.0
20260508091549 6 33 0.0 0.0 0.00 1.91 0.03 99 1002.0
20260508090041 6 33 0.0 3.2 0.00 1.91 0.03 99 1002.1
20260508084540 6 33 0.0 0.0 0.00 1.91 0.03 99 1002.1
20260508083048 6 33 0.0 0.0 0.00 1.91 0.03 99 1001.6
20260508081541 6 33 0.0 1.6 0.00 1.91 0.03 99 1001.6
20260508080054 6 33 0.0 3.2 0.00 1.91 0.03 99 1001.3
20260508074537 6 33 0.0 0.0 0.00 1.91 0.03 99 1001.4
20260508073040 6 33 0.0 3.2 0.00 1.91 0.03 98 1001.6
20260508071534 6 33 0.0 1.6 0.00 1.91 0.03 98 1001.7
20260508070033 6 33 0.0 1.6 0.00 1.91 0.03 98 1001.6
20260508064542 6 33 0.0 1.6 0.00 1.91 0.03 98 1001.8
20260508063031 7 33 0.0 6.4 0.00 1.91 0.03 98 1001.7
20260508061533 7 39 3.2 8.0 0.00 1.91 0.03 98 1001.8
20260508060029 7 43 1.6 9.7 0.00 1.91 0.03 98 1001.9
20260508054539 7 29 3.2 8.0 0.00 1.91 0.03 98 1001.8
20260508053023 7 38 1.6 6.4 0.00 1.91 0.03 98 1002.0
20260508051520 8 15 0.0 4.8 0.00 1.91 0.03 98 1002.0
20260508050019 8 40 0.0 0.0 0.00 1.91 0.03 98 1001.8
20260508044519 8 40 0.0 0.0 0.00 1.91 0.03 98 1001.8
20260508043017 8 40 0.0 4.8 0.00 1.91 0.03 98 1001.9
20260508041516 8 40 0.0 0.0 0.00 1.91 0.03 98 1002.0
20260508040034 8 40 0.0 0.0 0.03 1.91 0.03 98 1002.0
20260508034513 8 40 0.0 0.0 0.03 1.91 0.03 98 1002.1
20260508033013 8 40 0.0 0.0 0.03 1.91 0.03 98 1002.3
20260508031514 8 40 0.0 0.0 0.03 1.91 0.03 98 1002.2
20260508030009 8 40 0.0 0.0 0.00 1.88 1.88 98 1002.4
20260508024519 8 40 0.0 0.0 0.00 1.88 1.88 98 1002.3
20260508023010 8 40 1.6 3.2 0.00 1.88 1.88 97 1002.3
20260508021506 9 40 0.0 4.8 0.00 1.88 1.88 97 1002.6
20260508020006 9 46 1.6 6.4 0.00 1.88 1.88 97 1002.5
20260508014505 9 34 0.0 8.0 0.00 1.88 1.88 97 1002.7
20260508013003 9 38 1.6 9.7 0.03 1.88 1.88 97 1002.6
20260508011601 9 34 1.6 6.4 0.03 1.88 1.88 97 1002.3
20260508010059 10 27 3.2 11.3 0.05 1.88 1.88 97 1002.2
20260508004559 10 223 0.0 3.2 0.08 1.88 1.88 97 1002.3
20260508003055 10 231 4.8 11.3 0.08 1.85 1.85 97 1002.1
20260508001550 11 265 6.4 16.1 0.10 1.85 1.85 97 1002.2
20260508000055 11 207 3.2 9.7 0.05 1.83 1.83 97 1002.0
20260507234555 11 144 0.0 0.0 0.05 1.80 1.80 97 1001.9
20260507233109 11 158 0.0 4.8 0.03 1.78 1.78 97 1001.8
20260507231548 11 158 1.6 4.8 0.00 1.75 1.75 97 1001.7
20260507230049 11 74 0.0 4.8 0.00 1.75 1.75 97 1001.5
20260507224548 11 97 1.6 3.2 0.00 1.75 1.75 97 1001.8
20260507223056 11 97 0.0 3.2 0.00 1.75 1.75 97 1001.4
20260507221545 11 97 3.2 4.8 0.00 1.75 1.75 96 1001.6
20260507220044 11 98 0.0 3.2 0.00 1.75 1.75 96 1001.7
20260507214546 12 98 0.0 1.6 0.00 1.75 1.75 96 1001.6
20260507213045 12 107 0.0 9.7 0.00 1.75 1.75 96 1001.7
20260507211550 12 77 1.6 8.0 0.00 1.75 1.75 96 1001.6
20260507210103 12 118 1.6 6.4 0.03 1.75 1.75 96 1001.8
20260507204547 11 130 0.0 9.7 0.03 1.75 1.75 96 1001.5
20260507203043 11 130 1.6 11.3 0.10 1.75 1.75 96 1001.8
20260507201539 11 113 1.6 9.7 0.23 1.75 1.75 96 1001.1
20260507200048 12 128 4.8 11.3 0.28 1.75 1.75 96 1001.5
20260507194547 12 117 4.8 11.3 0.33 1.75 1.75 96 1001.8
20260507193032 12 105 4.8 11.3 0.41 1.65 1.65 97 1002.1
20260507191528 12 35 3.2 9.7 0.41 1.55 1.55 96 1003.3
20260507190040 12 349 0.0 3.2 0.51 1.42 1.42 96 1003.5
20260507184533 12 349 0.0 4.8 0.71 1.42 1.42 96 1003.4
20260507183025 12 241 1.6 11.3 0.89 1.27 1.27 96 1004.0
20260507181525 12 200 1.6 12.9 1.07 1.14 1.14 96 1004.0
20260507180024 12 199 11.3 16.1 0.89 0.91 0.91 95 1004.3
20260507174524 13 180 6.4 24.1 0.64 0.66 0.66 95 1004.6
20260507173126 13 198 9.7 24.1 0.38 0.38 0.38 94 1004.1
20260507171518 13 186 6.4 25.7 0.08 0.08 0.08 93 1003.8
20260507170020 13 155 12.9 33.8 0.05 0.05 0.05 92 1003.7
20260507164522 14 146 19.3 30.6 0.03 0.03 0.03 90 1003.9